,,Stat6,,Stat2,,Stat8,,Stat9,,Stat10,,Wind1,,Wind1,
time,status,PA1M_AVG,status,PR1M_SUM,status,RH1M_AVG,status,SR1M_AVG,status,TA1M_AVG,status,W1dAve1m,status,W1sAve1m,
2009-04-28, 00:00:00,VALID,918.313,VALID,0,VALID,100,VALID,-0.101885,VALID,19.5191,VALID,322,VALID,0,
2009-04-28, 00:01:00,VALID,918.3,VALID,0,VALID,100,VALID,-0.0679233,VALID,19.558,VALID,322,VALID,0,
2009-04-28, 00:02:00,VALID,918.295,VALID,0,VALID,100,VALID,-0.0849042,VALID,19.571,VALID,322,VALID,0,
2009-04-28, 00:03:00,VALID,918.289,VALID,0,VALID,100,VALID,-0.0849042,VALID,19.558,VALID,322,VALID,0,
2009-04-28, 00:04:00,VALID,918.304,VALID,0,VALID,100,VALID,-0.101885,VALID,19.558,VALID,4,VALID,0,
2009-04-28, 00:05:00,VALID,918.3,VALID,0,VALID,100,VALID,-0.101885,VALID,19.5772,VALID,62,VALID,0,
2009-04-28, 00:06:00,VALID,918.294,VALID,0,VALID,100,VALID,-0.0509425,VALID,19.5508,VALID,74,VALID,0,
2009-04-28, 00:07:00,VALID,918.29,VALID,0,VALID,100,VALID,-0.0679233,VALID,19.5708,VALID,98,VALID,0,
2009-04-28, 00:08:00,VALID,918.278,VALID,0,VALID,100,VALID,-0.0849042,VALID,19.5383,VALID,103,VALID,0,
2009-04-28, 00:09:00,VALID,918.272,VALID,0,VALID,100,VALID,-0.101885,VALID,19.4769,VALID,109,VALID,0,
2009-04-28, 00:10:00,VALID,918.259,VALID,0,VALID,100,VALID,-0.101885,VALID,19.4083,VALID,110,VALID,0,
2009-04-28, 00:11:00,VALID,918.259,VALID,0,VALID,100,VALID,-0.0679233,VALID,19.3629,VALID,105,VALID,0,
2009-04-28, 00:12:00,VALID,918.239,VALID,0,VALID,100,VALID,-0.0849042,VALID,19.2985,VALID,102,VALID,0,
2009-04-28, 00:13:00,VALID,918.217,VALID,0,VALID,100,VALID,-0.0679233,VALID,19.2136,VALID,91,VALID,0,
2009-04-28, 00:14:00,VALID,918.191,VALID,0,VALID,100,VALID,-0.101885,VALID,19.2044,VALID,89,VALID,0,
2009-04-28, 00:15:00,VALID,918.183,VALID,0,VALID,100,VALID,-0.101885,VALID,19.2433,VALID,89,VALID,0,
2009-04-28, 00:16:00,VALID,918.175,VALID,0,VALID,100,VALID,-0.101885,VALID,19.3107,VALID,90,VALID,0,
2009-04-28, 00:17:00,VALID,918.184,VALID,0,VALID,100,VALID,-0.101885,VALID,19.3861,VALID,105,VALID,0,
2009-04-28, 00:18:00,VALID,918.191,VALID,0,VALID,100,VALID,-0.0849042,VALID,19.3926,VALID,123,VALID,0,
2009-04-28, 00:19:00,VALID,918.186,VALID,0,VALID,100,VALID,-0.101885,VALID,19.3696,VALID,141,VALID,0.00260417,
2009-04-28, 00:20:00,VALID,918.192,VALID,0,VALID,100,VALID,-0.101885,VALID,19.3798,VALID,150,VALID,0,
2009-04-28, 00:21:00,VALID,918.192,VALID,0,VALID,100,VALID,-0.101885,VALID,19.3763,VALID,159,VALID,0.000372024,
2009-04-28, 00:22:00,VALID,918.183,VALID,0,VALID,100,VALID,0,VALID,19.3749,VALID,158,VALID,0.000762195,
2009-04-28, 00:23:00,VALID,918.181,VALID,0,VALID,100,VALID,0.0169808,VALID,19.3584,VALID,162,VALID,0,
2009-04-28, 00:24:00,VALID,918.163,VALID,0,VALID,100,VALID,0,VALID,19.3584,VALID,161,VALID,0,
2009-04-28, 00:25:00,VALID,918.155,VALID,0,VALID,100,VALID,0,VALID,19.3651,VALID,152,VALID,0.090298,
2009-04-28, 00:26:00,VALID,918.137,VALID,0,VALID,100,VALID,-0.0169808,VALID,19.3357,VALID,139,VALID,0.00297619,
2009-04-28, 00:27:00,VALID,918.117,VALID,0,VALID,100,VALID,0.0679233,VALID,19.3195,VALID,122,VALID,0.0377604,
2009-04-28, 00:28:00,VALID,918.118,VALID,0,VALID,100,VALID,0,VALID,19.3424,VALID,116,VALID,0,
2009-04-28, 00:29:00,VALID,918.107,VALID,0,VALID,100,VALID,0,VALID,19.3492,VALID,118,VALID,0,
2009-04-28, 00:30:00,VALID,918.091,VALID,0,VALID,100,VALID,0,VALID,19.3384,VALID,123,VALID,0,
2009-04-28, 00:31:00,VALID,918.078,VALID,0,VALID,100,VALID,0,VALID,19.3457,VALID,136,VALID,0,
2009-04-28, 00:32:00,VALID,918.068,VALID,0,VALID,100,VALID,0.0339617,VALID,19.3457,VALID,125,VALID,0.141197,
2009-04-28, 00:33:00,VALID,918.051,VALID,0,VALID,100,VALID,0,VALID,19.3492,VALID,125,VALID,0,
2009-04-28, 00:34:00,VALID,918.037,VALID,0,VALID,100,VALID,0.0169808,VALID,19.3424,VALID,117,VALID,0.0581597,
2009-04-28, 00:35:00,VALID,918.038,VALID,0,VALID,100,VALID,0.0509425,VALID,19.3454,VALID,111,VALID,0.25327,
2009-04-28, 00:36:00,VALID,918.037,VALID,0,VALID,100,VALID,0,VALID,19.3324,VALID,109,VALID,0.109566,
2009-04-28, 00:37:00,VALID,918.029,VALID,0,VALID,100,VALID,0,VALID,19.3292,VALID,102,VALID,0.0303819,
2009-04-28, 00:38:00,VALID,918.015,VALID,0,VALID,100,VALID,0,VALID,19.319,VALID,113,VALID,0.11109,
2009-04-28, 00:39:00,VALID,918,VALID,0,VALID,100,VALID,0,VALID,19.3187,VALID,117,VALID,0.13956,
2009-04-28, 00:40:00,VALID,917.998,VALID,0,VALID,100,VALID,0.0169808,VALID,19.3322,VALID,113,VALID,0.0741279,
2009-04-28, 00:41:00,VALID,917.994,VALID,0,VALID,100,VALID,0.0339617,VALID,19.3357,VALID,122,VALID,0,
2009-04-28, 00:42:00,VALID,917.992,VALID,0,VALID,100,VALID,-0.0169808,VALID,19.3457,VALID,120,VALID,0,
2009-04-28, 00:43:00,VALID,918,VALID,0,VALID,100,VALID,0.0339617,VALID,19.3482,VALID,125,VALID,0,
2009-04-28, 00:44:00,VALID,918.003,VALID,0,VALID,100,VALID,0.0169808,VALID,19.3684,VALID,140,VALID,0,
2009-04-28, 00:45:00,VALID,917.995,VALID,0,VALID,100,VALID,0,VALID,19.3776,VALID,129,VALID,0,
2009-04-28, 00:46:00,VALID,917.993,VALID,0,VALID,100,VALID,0,VALID,19.3906,VALID,123,VALID,0.0450149,
2009-04-28, 00:47:00,VALID,917.985,VALID,0,VALID,100,VALID,0,VALID,19.4133,VALID,129,VALID,0.0898438,
2009-04-28, 00:48:00,VALID,917.97,VALID,0,VALID,100,VALID,0.0509425,VALID,19.4397,VALID,133,VALID,0.0648619,
2009-04-28, 00:49:00,VALID,917.945,VALID,0,VALID,100,VALID,0.0339617,VALID,19.4492,VALID,133,VALID,0.0732195,
2009-04-28, 00:50:00,VALID,917.933,VALID,0,VALID,100,VALID,0.0339617,VALID,19.4525,VALID,146,VALID,0.134993,
2009-04-28, 00:51:00,VALID,917.912,VALID,0,VALID,100,VALID,0.0169808,VALID,19.4814,VALID,139,VALID,0.286272,
2009-04-28, 00:52:00,VALID,917.898,VALID,0,VALID,100,VALID,0,VALID,19.4882,VALID,122,VALID,0.0815217,
2009-04-28, 00:53:00,VALID,917.876,VALID,0,VALID,100,VALID,0,VALID,19.5009,VALID,137,VALID,0.201982,
2009-04-28, 00:54:00,VALID,917.856,VALID,0,VALID,100,VALID,0,VALID,19.4977,VALID,136,VALID,0.113867,
2009-04-28, 00:55:00,VALID,917.844,VALID,0,VALID,100,VALID,-0.0169808,VALID,19.4879,VALID,137,VALID,0.0374273,
2009-04-28, 00:56:00,VALID,917.815,VALID,0,VALID,100,VALID,-0.0339617,VALID,19.5076,VALID,149,VALID,0.090625,
2009-04-28, 00:57:00,VALID,917.816,VALID,0,VALID,100,VALID,-0.0169808,VALID,19.5111,VALID,151,VALID,0,
2009-04-28, 00:58:00,VALID,917.778,VALID,0,VALID,100,VALID,-0.0509425,VALID,19.5046,VALID,138,VALID,0.0828125,
2009-04-28, 00:59:00,VALID,917.758,VALID,0,VALID,100,VALID,-0.0679233,VALID,19.5111,VALID,134,VALID,0.0344122,
2009-04-28, 01:00:00,VALID,917.721,VALID,0,VALID,100,VALID,-0.0509425,VALID,19.5174,VALID,129,VALID,0.00177557,
2009-04-28, 01:01:00,VALID,917.706,VALID,0,VALID,100,VALID,-0.0169808,VALID,19.4947,VALID,115,VALID,0.0553977,
2009-04-28, 01:02:00,VALID,917.701,VALID,0,VALID,100,VALID,0,VALID,19.4979,VALID,124,VALID,0,
2009-04-28, 01:03:00,VALID,917.685,VALID,0,VALID,100,VALID,0,VALID,19.4847,VALID,134,VALID,0.0201172,
2009-04-28, 01:04:00,VALID,917.663,VALID,0,VALID,100,VALID,-0.0169808,VALID,19.4852,VALID,124,VALID,0,
2009-04-28, 01:05:00,VALID,917.669,VALID,0,VALID,100,VALID,0,VALID,19.4819,VALID,136,VALID,0.0221037,
2009-04-28, 01:06:00,VALID,917.655,VALID,0,VALID,100,VALID,-0.0509425,VALID,19.4981,VALID,140,VALID,0,
2009-04-28, 01:07:00,VALID,917.643,VALID,0,VALID,100,VALID,-0.0169808,VALID,19.4814,VALID,141,VALID,0,
2009-04-28, 01:08:00,VALID,917.636,VALID,0,VALID,100,VALID,0,VALID,19.4782,VALID,131,VALID,0.0385174,
2009-04-28, 01:09:00,VALID,917.619,VALID,0,VALID,100,VALID,-0.0339617,VALID,19.4592,VALID,133,VALID,0,
2009-04-28, 01:10:00,VALID,917.628,VALID,0,VALID,100,VALID,-0.0169808,VALID,19.4427,VALID,127,VALID,0.00123355,
2009-04-28, 01:11:00,VALID,917.613,VALID,0,VALID,100,VALID,0,VALID,19.4363,VALID,134,VALID,0.0114462,
2009-04-28, 01:12:00,VALID,917.605,VALID,0,VALID,100,VALID,0.0169808,VALID,19.4235,VALID,131,VALID,0.00195313,
2009-04-28, 01:13:00,VALID,917.599,VALID,0,VALID,100,VALID,-0.0169808,VALID,19.4101,VALID,142,VALID,0.0012429,
2009-04-28, 01:14:00,VALID,917.592,VALID,0,VALID,100,VALID,-0.0169808,VALID,19.4006,VALID,124,VALID,0,
2009-04-28, 01:15:00,VALID,917.58,VALID,0,VALID,100,VALID,0,VALID,19.3841,VALID,117,VALID,0.119234,
2009-04-28, 01:16:00,VALID,917.562,VALID,0,VALID,100,VALID,0,VALID,19.3876,VALID,129,VALID,0.271151,
2009-04-28, 01:17:00,VALID,917.548,VALID,0,VALID,100,VALID,0,VALID,19.3746,VALID,116,VALID,0,
2009-04-28, 01:18:00,VALID,917.531,VALID,0,VALID,100,VALID,0,VALID,19.3779,VALID,122,VALID,0.25293,
2009-04-28, 01:19:00,VALID,917.515,VALID,0,VALID,100,VALID,-0.0339617,VALID,19.3679,VALID,116,VALID,0.0957485,
2009-04-28, 01:20:00,VALID,917.502,VALID,0,VALID,100,VALID,0,VALID,19.3776,VALID,124,VALID,0.18641,
2009-04-28, 01:21:00,VALID,917.502,VALID,0,VALID,100,VALID,0,VALID,19.3749,VALID,128,VALID,0.234375,
2009-04-28, 01:22:00,VALID,917.477,VALID,0,VALID,100,VALID,-0.0509425,VALID,19.3616,VALID,144,VALID,0.148251,
2009-04-28, 01:23:00,VALID,917.48,VALID,0,VALID,100,VALID,-0.0509425,VALID,19.3619,VALID,141,VALID,0.00852273,
2009-04-28, 01:24:00,VALID,917.476,VALID,0,VALID,100,VALID,-0.0509425,VALID,19.3457,VALID,143,VALID,0.249092,
2009-04-28, 01:25:00,VALID,917.454,VALID,0,VALID,100,VALID,-0.0509425,VALID,19.3649,VALID,150,VALID,0.449805,
2009-04-28, 01:26:00,VALID,917.445,VALID,0,VALID,100,VALID,-0.0169808,VALID,19.3781,VALID,140,VALID,0.535974,
2009-04-28, 01:27:00,VALID,917.427,VALID,0,VALID,100,VALID,-0.0509425,VALID,19.3839,VALID,139,VALID,0.37358,
2009-04-28, 01:28:00,VALID,917.403,VALID,0,VALID,100,VALID,-0.0339617,VALID,19.3811,VALID,137,VALID,0.116097,
2009-04-28, 01:29:00,VALID,917.389,VALID,0,VALID,100,VALID,-0.0679233,VALID,19.3881,VALID,152,VALID,0.238281,
2009-04-28, 01:30:00,VALID,917.351,VALID,0,VALID,100,VALID,0,VALID,19.3776,VALID,148,VALID,0.227121,
2009-04-28, 01:31:00,VALID,917.332,VALID,0,VALID,100,VALID,-0.0339617,VALID,19.3519,VALID,148,VALID,0.862326,
2009-04-28, 01:32:00,VALID,917.314,VALID,0,VALID,100,VALID,0,VALID,19.3422,VALID,151,VALID,0.269717,
2009-04-28, 01:33:00,VALID,917.299,VALID,0,VALID,100,VALID,-0.0339617,VALID,19.326,VALID,128,VALID,0.605283,
2009-04-28, 01:34:00,VALID,917.3,VALID,0,VALID,100,VALID,-0.0169808,VALID,19.303,VALID,135,VALID,0.323742,
2009-04-28, 01:35:00,VALID,917.29,VALID,0,VALID,100,VALID,0,VALID,19.2965,VALID,146,VALID,0.392045,
2009-04-28, 01:36:00,VALID,917.279,VALID,0,VALID,100,VALID,0,VALID,19.29,VALID,137,VALID,0.404344,
2009-04-28, 01:37:00,VALID,917.27,VALID,0,VALID,100,VALID,-0.0169808,VALID,19.2673,VALID,140,VALID,0.344922,
2009-04-28, 01:38:00,VALID,917.258,VALID,0,VALID,100,VALID,-0.0169808,VALID,19.2641,VALID,132,VALID,0.208031,
2009-04-28, 01:39:00,VALID,917.232,VALID,0,VALID,100,VALID,-0.0339617,VALID,19.2543,VALID,142,VALID,0.613372,
2009-04-28, 01:40:00,VALID,917.206,VALID,0,VALID,100,VALID,0,VALID,19.2446,VALID,137,VALID,0.197545,
2009-04-28, 01:41:00,VALID,917.194,VALID,0,VALID,100,VALID,-0.0339617,VALID,19.2254,VALID,142,VALID,0.392485,
2009-04-28, 01:42:00,VALID,917.166,VALID,0,VALID,100,VALID,0,VALID,19.1929,VALID,129,VALID,0.0835069,
2009-04-28, 01:43:00,VALID,917.136,VALID,0,VALID,100,VALID,0,VALID,19.1835,VALID,139,VALID,0.0813954,
2009-04-28, 01:44:00,VALID,917.116,VALID,0,VALID,100,VALID,-0.0169808,VALID,19.1473,VALID,139,VALID,0,
2009-04-28, 01:45:00,VALID,917.109,VALID,0,VALID,100,VALID,0,VALID,19.1211,VALID,135,VALID,0.162695,
2009-04-28, 01:46:00,VALID,917.102,VALID,0,VALID,100,VALID,-0.0339617,VALID,19.1218,VALID,146,VALID,0.0619141,
2009-04-28, 01:47:00,VALID,917.095,VALID,0,VALID,100,VALID,-0.0169808,VALID,19.1151,VALID,162,VALID,0.00223214,
2009-04-28, 01:48:00,VALID,917.091,VALID,0,VALID,100,VALID,-0.0169808,VALID,19.1213,VALID,137,VALID,0.003125,
2009-04-28, 01:49:00,VALID,917.1,VALID,0,VALID,100,VALID,0,VALID,19.1281,VALID,150,VALID,0.00409226,
2009-04-28, 01:50:00,VALID,917.087,VALID,0,VALID,100,VALID,-0.0169808,VALID,19.1313,VALID,157,VALID,0.00472384,
2009-04-28, 01:51:00,VALID,917.082,VALID,0,VALID,100,VALID,-0.0169808,VALID,19.1183,VALID,144,VALID,0.00190549,
2009-04-28, 01:52:00,VALID,917.069,VALID,0,VALID,100,VALID,0.0169808,VALID,19.1049,VALID,158,VALID,0.321646,
2009-04-28, 01:53:00,VALID,917.069,VALID,0,VALID,100,VALID,0,VALID,19.1084,VALID,155,VALID,0,
2009-04-28, 01:54:00,VALID,917.062,VALID,0,VALID,100,VALID,-0.0169808,VALID,19.1151,VALID,176,VALID,0.0115327,
2009-04-28, 01:55:00,VALID,917.056,VALID,0,VALID,100,VALID,0.0339617,VALID,19.1019,VALID,158,VALID,0.213224,
2009-04-28, 01:56:00,VALID,917.066,VALID,0,VALID,100,VALID,0,VALID,19.0814,VALID,147,VALID,0.0666921,
2009-04-28, 01:57:00,VALID,917.056,VALID,0,VALID,100,VALID,0,VALID,19.0819,VALID,149,VALID,0.1875,
2009-04-28, 01:58:00,VALID,917.031,VALID,0,VALID,100,VALID,0.0339617,VALID,19.0717,VALID,137,VALID,0.0727307,
2009-04-28, 01:59:00,VALID,917.036,VALID,0,VALID,100,VALID,0.0169808,VALID,19.0752,VALID,137,VALID,0.0294331,
2009-04-28, 02:00:00,VALID,917.025,VALID,0,VALID,100,VALID,0,VALID,19.0562,VALID,137,VALID,0.0221946,
2009-04-28, 02:01:00,VALID,917.007,VALID,0,VALID,100,VALID,0,VALID,19.0238,VALID,140,VALID,0.0012718,
2009-04-28, 02:02:00,VALID,917.025,VALID,0,VALID,100,VALID,0,VALID,18.9943,VALID,147,VALID,0.0053267,
2009-04-28, 02:03:00,VALID,917.011,VALID,0,VALID,100,VALID,0,VALID,19.0076,VALID,131,VALID,0,
2009-04-28, 02:04:00,VALID,917.006,VALID,0,VALID,100,VALID,0,VALID,19.0016,VALID,157,VALID,0.260901,
2009-04-28, 02:05:00,VALID,916.998,VALID,0,VALID,100,VALID,-0.0339617,VALID,19.005,VALID,157,VALID,0,
2009-04-28, 02:06:00,VALID,917.002,VALID,0,VALID,100,VALID,0.0169808,VALID,18.9909,VALID,157,VALID,0.147017,
2009-04-28, 02:07:00,VALID,916.99,VALID,0,VALID,100,VALID,-0.101885,VALID,18.9925,VALID,158,VALID,0,
2009-04-28, 02:08:00,VALID,916.993,VALID,0,VALID,100,VALID,-0.118866,VALID,18.9863,VALID,158,VALID,0,
2009-04-28, 02:09:01,VALID,917.003,VALID,0,VALID,100,VALID,-0.101885,VALID,18.9698,VALID,155,VALID,0,
2009-04-28, 02:10:01,VALID,917.012,VALID,0,VALID,100,VALID,-0.0849042,VALID,18.9337,VALID,160,VALID,0,
2009-04-28, 02:11:00,VALID,917.011,VALID,0,VALID,100,VALID,-0.101885,VALID,18.9603,VALID,169,VALID,0.00234375,
2009-04-28, 02:12:01,VALID,917.009,VALID,0,VALID,100,VALID,-0.0849042,VALID,18.9668,VALID,152,VALID,0,
2009-04-28, 02:13:00,VALID,917.011,VALID,0,VALID,100,VALID,-0.101885,VALID,18.9865,VALID,168,VALID,0.00106534,
2009-04-28, 02:14:00,VALID,917.005,VALID,0,VALID,100,VALID,-0.101885,VALID,18.9895,VALID,154,VALID,0.000744048,
2009-04-28, 02:15:00,VALID,917.008,VALID,0,VALID,100,VALID,-0.0849042,VALID,18.9928,VALID,144,VALID,0.0113467,
2009-04-28, 02:16:00,VALID,917.006,VALID,0,VALID,100,VALID,-0.101885,VALID,18.9599,VALID,157,VALID,0.199929,
2009-04-28, 02:17:00,VALID,916.972,VALID,0,VALID,100,VALID,-0.101885,VALID,18.9668,VALID,170,VALID,0.00818452,
2009-04-28, 02:18:00,VALID,916.964,VALID,0,VALID,100,VALID,-0.0679233,VALID,18.9666,VALID,178,VALID,0.186047,
2009-04-28, 02:19:00,VALID,916.973,VALID,0,VALID,100,VALID,-0.101885,VALID,18.9803,VALID,167,VALID,0.00490552,
2009-04-28, 02:20:01,VALID,916.965,VALID,0,VALID,100,VALID,-0.101885,VALID,18.9798,VALID,168,VALID,0.0013587,
2009-04-28, 02:21:00,VALID,916.938,VALID,0,VALID,100,VALID,-0.101885,VALID,18.9763,VALID,166,VALID,0.0063244,
2009-04-28, 02:22:01,VALID,916.939,VALID,0,VALID,100,VALID,0.0169808,VALID,18.9849,VALID,174,VALID,0.32848,
2009-04-28, 02:23:01,VALID,916.943,VALID,0,VALID,100,VALID,0,VALID,18.9983,VALID,169,VALID,0,
2009-04-28, 02:24:01,VALID,916.943,VALID,0,VALID,100,VALID,0.0169808,VALID,18.9781,VALID,196,VALID,0.0574653,
2009-04-28, 02:25:00,VALID,916.932,VALID,0,VALID,100,VALID,0.0169808,VALID,18.9911,VALID,173,VALID,0.166061,
2009-04-28, 02:26:00,VALID,916.92,VALID,0,VALID,100,VALID,0.0169808,VALID,18.9874,VALID,172,VALID,0.68045,
2009-04-28, 02:27:00,VALID,916.931,VALID,0,VALID,100,VALID,0,VALID,18.9978,VALID,170,VALID,0.785979,
2009-04-28, 02:28:01,VALID,916.931,VALID,0,VALID,100,VALID,0.0169808,VALID,19.027,VALID,165,VALID,1.24293,
2009-04-28, 02:29:00,VALID,916.935,VALID,0,VALID,100,VALID,0.0169808,VALID,19.0073,VALID,163,VALID,0.727134,
2009-04-28, 02:30:01,VALID,916.927,VALID,0,VALID,100,VALID,0,VALID,19.0043,VALID,167,VALID,1.04342,
2009-04-28, 02:31:01,VALID,916.935,VALID,0,VALID,100,VALID,0.0169808,VALID,19.0173,VALID,149,VALID,0.299361,
2009-04-28, 02:32:01,VALID,916.932,VALID,0,VALID,100,VALID,0,VALID,19.0016,VALID,149,VALID,1.09783,
2009-04-28, 02:33:01,VALID,916.94,VALID,0,VALID,100,VALID,-0.0509425,VALID,18.9916,VALID,151,VALID,0.474746,
2009-04-28, 02:34:01,VALID,916.951,VALID,0,VALID,100,VALID,0,VALID,18.9816,VALID,153,VALID,0.6625,
2009-04-28, 02:35:00,VALID,916.964,VALID,0,VALID,100,VALID,0,VALID,18.9682,VALID,156,VALID,0.965523,
2009-04-28, 02:36:00,VALID,916.987,VALID,0,VALID,100,VALID,0.0169808,VALID,18.9582,VALID,145,VALID,0.373757,
2009-04-28, 02:37:00,VALID,916.984,VALID,0,VALID,100,VALID,-0.101885,VALID,18.9633,VALID,157,VALID,0,
2009-04-28, 02:38:00,VALID,916.998,VALID,0,VALID,100,VALID,-0.0849042,VALID,18.9629,VALID,166,VALID,0.551042,
2009-04-28, 02:39:00,VALID,916.996,VALID,0,VALID,100,VALID,-0.0849042,VALID,18.9631,VALID,149,VALID,0.748183,
2009-04-28, 02:40:01,VALID,916.987,VALID,0,VALID,100,VALID,-0.0849042,VALID,18.9501,VALID,162,VALID,0.882267,
2009-04-28, 02:41:00,VALID,916.979,VALID,0,VALID,100,VALID,-0.101885,VALID,18.9406,VALID,149,VALID,0.858665,
2009-04-28, 02:42:01,VALID,916.978,VALID,0,VALID,100,VALID,-0.118866,VALID,18.9239,VALID,158,VALID,1.03405,
2009-04-28, 02:43:00,VALID,916.969,VALID,0,VALID,100,VALID,-0.101885,VALID,18.9309,VALID,148,VALID,1.02168,
2009-04-28, 02:44:00,VALID,916.956,VALID,0,VALID,100,VALID,-0.101885,VALID,18.9112,VALID,143,VALID,0.272892,
2009-04-28, 02:45:01,VALID,916.962,VALID,0,VALID,100,VALID,-0.0849042,VALID,18.9047,VALID,163,VALID,0.817042,
2009-04-28, 02:46:00,VALID,916.956,VALID,0,VALID,100,VALID,-0.101885,VALID,18.8887,VALID,151,VALID,0.722842,
2009-04-28, 02:47:00,VALID,916.965,VALID,0,VALID,100,VALID,-0.0849042,VALID,18.8822,VALID,144,VALID,0.902961,
2009-04-28, 02:48:01,VALID,916.965,VALID,0,VALID,100,VALID,-0.101885,VALID,18.873,VALID,133,VALID,0.84654,
2009-04-28, 02:49:00,VALID,916.968,VALID,0,VALID,100,VALID,-0.101885,VALID,18.8403,VALID,118,VALID,1.24663,
2009-04-28, 02:50:00,VALID,916.977,VALID,0,VALID,100,VALID,-0.118866,VALID,18.8271,VALID,120,VALID,1.22805,
2009-04-28, 02:51:01,VALID,916.975,VALID,0,VALID,100,VALID,-0.118866,VALID,18.8178,VALID,128,VALID,1.2849,
2009-04-28, 02:52:01,VALID,916.977,VALID,0,VALID,100,VALID,0,VALID,18.8092,VALID,140,VALID,1.2582,
2009-04-28, 02:53:01,VALID,916.955,VALID,0,VALID,100,VALID,0,VALID,18.8095,VALID,138,VALID,1.30971,
2009-04-28, 02:54:00,VALID,916.946,VALID,0,VALID,100,VALID,0,VALID,18.8192,VALID,146,VALID,1.43169,
2009-04-28, 02:55:01,VALID,916.932,VALID,0,VALID,100,VALID,-0.0169808,VALID,18.8095,VALID,145,VALID,1.23366,
2009-04-28, 02:56:00,VALID,916.914,VALID,0,VALID,100,VALID,0,VALID,18.8092,VALID,144,VALID,1.09766,
2009-04-28, 02:57:01,VALID,916.897,VALID,0,VALID,100,VALID,0.0169808,VALID,18.7928,VALID,146,VALID,1.08646,
2009-04-28, 02:58:01,VALID,916.883,VALID,0,VALID,100,VALID,0.0169808,VALID,18.7865,VALID,144,VALID,1.1276,
2009-04-28, 02:59:00,VALID,916.872,VALID,0,VALID,100,VALID,0,VALID,18.7868,VALID,145,VALID,0.953307,
2009-04-28, 03:00:00,VALID,916.839,VALID,0,VALID,100,VALID,0,VALID,18.784,VALID,138,VALID,1.13246,
2009-04-28, 03:01:01,VALID,916.82,VALID,0,VALID,100,VALID,0,VALID,18.7573,VALID,141,VALID,1.25598,
2009-04-28, 03:02:01,VALID,916.818,VALID,0,VALID,100,VALID,0,VALID,18.7381,VALID,135,VALID,1.14244,
2009-04-28, 03:03:01,VALID,916.806,VALID,0,VALID,100,VALID,0,VALID,18.7281,VALID,138,VALID,1.43973,
2009-04-28, 03:04:01,VALID,916.799,VALID,0,VALID,100,VALID,-0.0169808,VALID,18.7284,VALID,134,VALID,1.22024,
2009-04-28, 03:05:01,VALID,916.809,VALID,0,VALID,100,VALID,-0.0169808,VALID,18.7154,VALID,133,VALID,1.379,
2009-04-28, 03:06:01,VALID,916.812,VALID,0,VALID,100,VALID,-0.0339617,VALID,18.7126,VALID,134,VALID,1.22879,
2009-04-28, 03:07:01,VALID,916.825,VALID,0,VALID,100,VALID,0,VALID,18.6992,VALID,125,VALID,1.06686,
2009-04-28, 03:08:00,VALID,916.841,VALID,0,VALID,100,VALID,0.0169808,VALID,18.6695,VALID,126,VALID,0.84375,
2009-04-28, 03:09:00,VALID,916.845,VALID,0,VALID,100,VALID,0,VALID,18.6603,VALID,130,VALID,1.08632,
2009-04-28, 03:10:00,VALID,916.847,VALID,0,VALID,100,VALID,0,VALID,18.647,VALID,137,VALID,1.15163,
2009-04-28, 03:11:00,VALID,916.852,VALID,0,VALID,100,VALID,-0.0169808,VALID,18.6505,VALID,140,VALID,1.32297,
2009-04-28, 03:12:00,VALID,916.849,VALID,0,VALID,100,VALID,0.0169808,VALID,18.6501,VALID,152,VALID,1.02511,
2009-04-28, 03:13:00,VALID,916.828,VALID,0,VALID,100,VALID,0,VALID,18.6762,VALID,152,VALID,1.21748,
2009-04-28, 03:14:00,VALID,916.822,VALID,0,VALID,100,VALID,-0.0169808,VALID,18.6762,VALID,145,VALID,1.19497,
2009-04-28, 03:15:00,VALID,916.8,VALID,0,VALID,100,VALID,0,VALID,18.676,VALID,145,VALID,1.4592,
2009-04-28, 03:16:00,VALID,916.795,VALID,0,VALID,100,VALID,-0.0169808,VALID,18.6535,VALID,129,VALID,0.972479,
2009-04-28, 03:17:00,VALID,916.792,VALID,0,VALID,100,VALID,-0.0339617,VALID,18.6443,VALID,132,VALID,0.895389,
2009-04-28, 03:18:00,VALID,916.788,VALID,0,VALID,100,VALID,-0.0169808,VALID,18.6051,VALID,114,VALID,0.910247,
2009-04-28, 03:19:00,VALID,916.793,VALID,0,VALID,100,VALID,-0.0169808,VALID,18.6019,VALID,117,VALID,1.11753,
2009-04-28, 03:20:00,VALID,916.81,VALID,0,VALID,100,VALID,0,VALID,18.5949,VALID,105,VALID,0.873785,
2009-04-28, 03:21:00,VALID,916.811,VALID,0,VALID,100,VALID,0.0339617,VALID,18.5722,VALID,112,VALID,0.815848,
2009-04-28, 03:22:00,VALID,916.822,VALID,0,VALID,100,VALID,-0.0169808,VALID,18.5565,VALID,106,VALID,0.801669,
2009-04-28, 03:23:00,VALID,916.843,VALID,0,VALID,100,VALID,0,VALID,18.524,VALID,103,VALID,0.804688,
2009-04-28, 03:24:00,VALID,916.843,VALID,0,VALID,100,VALID,0,VALID,18.4851,VALID,102,VALID,0.476749,
2009-04-28, 03:25:00,VALID,916.844,VALID,0,VALID,100,VALID,0.0169808,VALID,18.4687,VALID,102,VALID,0.647035,
2009-04-28, 03:26:00,VALID,916.848,VALID,0,VALID,100,VALID,0.0169808,VALID,18.4555,VALID,108,VALID,0.188408,
2009-04-28, 03:27:00,VALID,916.85,VALID,0,VALID,100,VALID,0,VALID,18.4527,VALID,114,VALID,0.733994,
2009-04-28, 03:28:00,VALID,916.845,VALID,0,VALID,100,VALID,0,VALID,18.43,VALID,115,VALID,0.72202,
2009-04-28, 03:29:00,VALID,916.832,VALID,0,VALID,100,VALID,0.0169808,VALID,18.4462,VALID,122,VALID,1.01391,
2009-04-28, 03:30:00,VALID,916.844,VALID,0,VALID,100,VALID,0,VALID,18.4362,VALID,131,VALID,1.10103,
2009-04-28, 03:31:00,VALID,916.827,VALID,0,VALID,100,VALID,0,VALID,18.4298,VALID,141,VALID,1.09989,
2009-04-28, 03:32:00,VALID,916.828,VALID,0,VALID,100,VALID,0.0169808,VALID,18.436,VALID,142,VALID,1.19624,
2009-04-28, 03:33:00,VALID,916.831,VALID,0,VALID,100,VALID,0.0339617,VALID,18.4555,VALID,134,VALID,1.22118,
2009-04-28, 03:34:00,VALID,916.84,VALID,0,VALID,100,VALID,0.0169808,VALID,18.4652,VALID,126,VALID,1.15589,
2009-04-28, 03:35:00,VALID,916.837,VALID,0,VALID,100,VALID,0.0169808,VALID,18.4555,VALID,119,VALID,1.14201,
2009-04-28, 03:36:00,VALID,916.839,VALID,0,VALID,100,VALID,0,VALID,18.4365,VALID,111,VALID,0.980378,
2009-04-28, 03:37:00,VALID,916.842,VALID,0,VALID,100,VALID,0,VALID,18.4267,VALID,113,VALID,1.10879,
2009-04-28, 03:38:00,VALID,916.842,VALID,0,VALID,100,VALID,0.0169808,VALID,18.4003,VALID,119,VALID,0.850781,
2009-04-28, 03:39:00,VALID,916.836,VALID,0,VALID,100,VALID,0.0169808,VALID,18.3971,VALID,119,VALID,1.08222,
2009-04-28, 03:40:00,VALID,916.834,VALID,0,VALID,100,VALID,-0.0169808,VALID,18.3813,VALID,105,VALID,0.831555,
2009-04-28, 03:41:00,VALID,916.839,VALID,0,VALID,100,VALID,-0.0169808,VALID,18.3579,VALID,121,VALID,0.840039,
2009-04-28, 03:42:00,VALID,916.861,VALID,0,VALID,100,VALID,-0.0339617,VALID,18.3582,VALID,120,VALID,0.931868,
2009-04-28, 03:43:00,VALID,916.85,VALID,0,VALID,100,VALID,0,VALID,18.3519,VALID,121,VALID,0.723704,
2009-04-28, 03:44:00,VALID,916.85,VALID,0,VALID,100,VALID,0,VALID,18.3517,VALID,113,VALID,0.729911,